Ardmore, OK

5:52 PM CDT on April 28, 2017 (GMT -0500)
Ardmore Municipal

Weather History for KADM - December, 2014

Change the Weather History Date:

Friday, December 12, 2014

  Actual Average Record
Temperature  
Mean Temperature 48 °F -  
Max Temperature 50 °F 53 °F 72 °F (2015)
Min Temperature 45 °F 34 °F 14 °F (2000)
Degree Days  
Heating Degree Days 18    
Moisture  
Dew Point 48 °F    
Average Humidity 100    
Maximum Humidity 100    
Minimum Humidity 94    
Precipitation  
Precipitation 0.00 in - - ()
Sea Level Pressure  
Sea Level Pressure 30.23 in    
Wind  
Wind Speed 6 mph (ESE)    
Max Wind Speed 9 mph    
Max Gust Speed -    
Visibility 2 miles    
Events Fog , Thunderstorm    
Averages and records for this station are not official NWS values.
T = Trace of Precipitation, MM = Missing Value Source: NWS Daily Summary

Daily Weather History Graph

Daily Weather History Graph

Search for Another Location

Airport or City:

Trip Planner

Search our weather history database for the weather conditions in past years. The results will help you decide how hot, cold, wet, or windy it might be!

Date:

Astronomy

Dec. 12, 2014 Rise Set
Actual Time 7:24 AM CST 5:18 PM CST
Civil Twilight 6:57 AM CST 5:46 PM CST
Nautical Twilight 6:25 AM CST 6:17 PM CST
Astronomical Twilight 5:55 AM CST 6:48 PM CST
Moon 11:14 PM CST (12/12) 11:30 AM CST (12/12)
Length of Visible Light 10h 49m
Length of Day
9h 53m
Waning Gibbous, 67% of the Moon is Illuminated
Dec 12
Waning Gibbous
Dec 14
Last Quarter
Dec 21
New
Dec 28
First Quarter
Jan 4
Full

Hourly Weather History & Observations

Time (CST) Temp. Windchill Dew Point Humidity Pressure Visibility Wind Dir Wind Speed Gust Speed Precip Events Conditions
12:15 AM 45.3 °F 43.0 °F 45.1 °F 99% 30.23 in 3.0 mi ESE 4.6 mph - N/A   Overcast
12:35 AM 45.3 °F 42.3 °F 45.3 °F 100% 30.22 in 2.5 mi ESE 5.8 mph - N/A   Overcast
12:55 AM 45.1 °F 43.7 °F 45.1 °F 100% 30.22 in 3.0 mi ESE 3.5 mph - N/A   Overcast
1:15 AM 45.3 °F 44.0 °F 45.3 °F 100% 30.22 in 3.0 mi ESE 3.5 mph - N/A   Overcast
1:35 AM 45.5 °F 42.5 °F 45.5 °F 100% 30.22 in 2.0 mi ESE 5.8 mph - N/A   Overcast
1:55 AM 45.5 °F 43.2 °F 45.5 °F 100% 30.23 in 1.5 mi ESE 4.6 mph - N/A   Overcast
2:15 AM 45.5 °F 42.5 °F 45.5 °F 100% 30.23 in 1.5 mi East 5.8 mph - N/A   Overcast
2:35 AM 45.5 °F 41.8 °F 45.5 °F 100% 30.23 in 1.8 mi East 6.9 mph - N/A   Overcast
2:55 AM 45.5 °F 43.2 °F 45.5 °F 100% 30.23 in 2.5 mi ESE 4.6 mph - N/A   Overcast
3:15 AM 45.7 °F 43.4 °F 45.7 °F 100% 30.23 in 2.5 mi ESE 4.6 mph - N/A   Overcast
3:35 AM 45.7 °F 43.4 °F 45.7 °F 100% 30.23 in 3.0 mi ESE 4.6 mph - N/A   Overcast
3:55 AM 45.9 °F 43.6 °F 45.9 °F 100% 30.23 in 3.0 mi ESE 4.6 mph - N/A   Overcast
4:15 AM 45.9 °F 44.6 °F 45.9 °F 100% 30.22 in 3.0 mi ESE 3.5 mph - N/A   Overcast
4:35 AM 45.9 °F 42.9 °F 45.9 °F 100% 30.22 in 2.0 mi ESE 5.8 mph - N/A   Overcast
4:55 AM 45.9 °F 43.6 °F 45.9 °F 100% 30.22 in 2.5 mi ESE 4.6 mph - N/A   Overcast
5:15 AM 46.0 °F 43.9 °F 46.0 °F 100% 30.23 in 2.5 mi East 4.6 mph - N/A   Overcast
5:35 AM 46.0 °F 43.9 °F 46.0 °F 100% 30.23 in 2.0 mi East 4.6 mph - N/A   Overcast
6:55 AM 46.4 °F 44.3 °F 46.4 °F 100% 30.24 in 2.0 mi ESE 4.6 mph - N/A   Overcast
7:55 AM 46.4 °F 42.9 °F 46.4 °F 100% 30.26 in 0.8 mi East 6.9 mph - N/A   Overcast
8:55 AM 46.4 °F 42.9 °F 46.4 °F 100% 30.27 in 2.0 mi East 6.9 mph - N/A   Overcast
9:55 AM 48.2 °F - 48.2 °F 100% 30.29 in 2.5 mi East 8.1 mph - N/A   Overcast
10:55 AM 48.2 °F - 48.2 °F 100% 30.29 in 2.5 mi East 9.2 mph - N/A   Overcast
11:55 AM 48.2 °F - 48.2 °F 100% 30.26 in 1.5 mi ESE 6.9 mph - N/A   Overcast
12:55 PM 50.0 °F - 48.2 °F 94% 30.22 in 1.8 mi ESE 6.9 mph - N/A   Overcast
1:55 PM 50.0 °F - 50.0 °F 100% 30.21 in 2.5 mi ESE 6.9 mph - N/A   Overcast
2:25 PM 50.0 °F - 50.0 °F 100% 30.20 in 0.5 mi ESE 5.8 mph - N/A Fog Fog
2:55 PM 50.0 °F - 50.0 °F 100% 30.20 in 0.8 mi East 5.8 mph - N/A   Overcast
3:55 PM 50.0 °F - 50.0 °F 100% 30.20 in 0.5 mi ESE 8.1 mph - N/A Fog Fog
4:55 PM 50.0 °F - 50.0 °F 100% 30.20 in 0.5 mi ESE 9.2 mph - N/A Fog Fog
5:55 PM 50.0 °F - 50.0 °F 100% 30.20 in 2.0 mi East 9.2 mph - N/A   Overcast
6:55 PM 50.0 °F - 50.0 °F 100% 30.21 in 1.0 mi East 5.8 mph - N/A   Overcast
7:55 PM 50.0 °F - 50.0 °F 100% 30.21 in 1.2 mi ESE 5.8 mph - N/A   Overcast
8:55 PM 50.0 °F - 50.0 °F 100% 30.21 in 2.5 mi ESE 4.6 mph - N/A   Overcast
9:15 PM 50.0 °F - 50.0 °F 100% 30.22 in 2.5 mi ESE 6.9 mph - N/A   Overcast
9:35 PM 50.0 °F - 50.0 °F 100% 30.22 in 2.0 mi ESE 5.8 mph - N/A   Overcast
9:55 PM 50.0 °F - 50.0 °F 100% 30.22 in 1.5 mi ESE 6.9 mph - N/A   Overcast
10:15 PM 50.0 °F - 50.0 °F 100% 30.22 in 1.5 mi ESE 5.8 mph - N/A Thunderstorm Overcast
10:35 PM 50.0 °F - 50.0 °F 100% 30.22 in 1.2 mi ESE 6.9 mph - N/A   Overcast
10:55 PM 50.0 °F - 50.0 °F 100% 30.22 in 1.0 mi ESE 6.9 mph - N/A   Overcast
11:15 PM 50.2 °F - 50.2 °F 100% 30.22 in 1.0 mi ESE 9.2 mph - N/A   Overcast
11:35 PM 50.2 °F - 50.2 °F 100% 30.22 in 1.0 mi ESE 5.8 mph - N/A   Overcast
11:55 PM 50.4 °F - 50.4 °F 100% 30.22 in 0.8 mi ESE 8.1 mph - N/A   Overcast